Flag for Brazil Weather past 2 weeks in Fortaleza, Ceará, Brazil

Now
81 °F

Passing clouds.


Feels Like: 85 °F
Forecast: N/A
Wind: 7 mph from Northeast

Location: Fortaleza Aeropor-To

Current Time: Mar 26, 2015 at 8:13:27 PM

Latest Report: Mar 26, 2015 at 7:00 PM


Visibility: N/A

Pressure: 29.86 "Hg

Humidity: 74%

Dew point: 72 °F

Location of FortalezaLocation

Historic Weather in Fortaleza — Graph

°F

Fortaleza temperature yesterday

Maximum temperature yesterday: 86 °F (at 11:00 AM)
Minimum temperature yesterday: 75 °F (at 3:00 AM)
Average temperature yesterday: 80 °F

Past Weeks' High & Low Weather Summary

 TemperatureHumidityPressure
High88 °F (Mar 15, 12:00 PM)100% (Mar 19, 11:00 PM)29.98 "Hg (Mar 19, 11:00 PM)
Low73 °F (Mar 19, 11:00 PM)49% (Mar 15, 1:00 PM)29.74 "Hg (Mar 13, 3:00 PM)
Average81 °F74%29.86 "Hg
* Reported Mar 11 7:00 PM — Mar 26 7:00 PM, Fortaleza, Weather by CustomWeather, © 2015

Note: Actual official high and low records may vary slightly from our data, if they occured in-between our weather recording intervals... More about our weather records

Advertising

Fortaleza weather history for previous 24 hours

 ConditionsComfort  
Time TempWeatherWind HumidityBarometerVisibility
7:00 PM
Thu, Mar 26
81 °FPassing clouds.7 mph74%29.86 "HgN/A
6:00 PM82 °FPassing clouds.5 mph66%29.86 "HgN/A
5:00 PM84 °FPassing clouds.7 mph58%29.86 "HgN/A
4:00 PM84 °FPassing clouds.8 mph66%29.83 "HgN/A
3:00 PM84 °FPartly sunny.10 mph62%29.83 "HgN/A
2:00 PM86 °FPartly sunny.8 mph62%29.86 "HgN/A
1:00 PM84 °FPartly sunny.12 mph62%29.86 "HgN/A
12:00 PM86 °FPartly sunny.12 mph55%29.89 "HgN/A
11:00 AM86 °FPartly sunny.9 mph59%29.92 "HgN/A
10:00 AM84 °FPartly sunny.9 mph62%29.92 "HgN/A
9:00 AM84 °FPartly sunny.9 mph62%29.92 "HgN/A
8:00 AM82 °FPartly sunny.7 mph74%29.92 "HgN/A
7:00 AM81 °FPartly sunny.5 mph79%29.92 "HgN/A
6:00 AM77 °FPartly sunny.3 mph94%29.89 "HgN/A
5:00 AM77 °FPassing clouds.3 mph94%29.89 "HgN/A
4:00 AM77 °FPassing clouds.3 mph89%29.86 "HgN/A
3:00 AM79 °FPassing clouds.3 mph84%29.86 "HgN/A
2:00 AM79 °FPassing clouds.3 mph84%29.89 "HgN/A
1:00 AM79 °FPassing clouds.3 mph79%29.92 "HgN/A
12:00 AM79 °FPassing clouds.5 mph79%29.92 "HgN/A
11:00 PM
Wed, Mar 25
79 °FPassing clouds.6 mph79%29.95 "HgN/A
10:00 PM81 °FPassing clouds.6 mph74%29.95 "HgN/A
9:00 PM81 °FPassing clouds.5 mph79%29.92 "HgN/A
8:00 PM81 °FPassing clouds.3 mph79%29.92 "HgN/A
Weather by CustomWeather, © 2015

See weather overviewHow to use our weather pages